Year,Month,Day,Hour,Minute,Value (Times are PST for temperature in C)
2012,07,05,00,00,13.40
2012,07,05,00,01,13.30
2012,07,05,00,02,13.30
2012,07,05,00,03,13.30
2012,07,05,00,04,13.20
2012,07,05,00,05,13.20
2012,07,05,00,06,13.20
2012,07,05,00,07,13.20
2012,07,05,00,08,13.20
2012,07,05,00,09,13.20
2012,07,05,00,10,13.20
2012,07,05,00,11,13.10
2012,07,05,00,12,13.10
2012,07,05,00,13,13.10
2012,07,05,00,14,13.10
2012,07,05,00,15,13.00
2012,07,05,00,16,13.00
2012,07,05,00,17,12.90
2012,07,05,00,18,12.90
2012,07,05,00,19,12.80
2012,07,05,00,20,12.80
2012,07,05,00,21,12.70
2012,07,05,00,22,12.60
2012,07,05,00,23,12.60
2012,07,05,00,24,12.50
2012,07,05,00,25,12.50
2012,07,05,00,26,12.40
2012,07,05,00,27,12.40
2012,07,05,00,28,12.30
2012,07,05,00,29,12.30
2012,07,05,00,30,12.20
2012,07,05,00,31,12.20
2012,07,05,00,32,12.10
2012,07,05,00,33,12.10
2012,07,05,00,34,12.10
2012,07,05,00,35,12.00
2012,07,05,00,36,12.00
2012,07,05,00,37,11.90
2012,07,05,00,38,11.90
2012,07,05,00,39,11.80
2012,07,05,00,40,11.80
2012,07,05,00,41,11.80
2012,07,05,00,42,11.80
2012,07,05,00,43,11.80
2012,07,05,00,44,11.80
2012,07,05,00,45,11.70
2012,07,05,00,46,11.70
2012,07,05,00,47,11.70
2012,07,05,00,48,11.70
2012,07,05,00,49,11.70
2012,07,05,00,50,11.60
2012,07,05,00,51,11.60
2012,07,05,00,52,11.60
2012,07,05,00,53,11.60
2012,07,05,00,54,11.50
2012,07,05,00,55,11.50
2012,07,05,00,56,11.50
2012,07,05,00,57,11.40
2012,07,05,00,58,11.40
2012,07,05,00,59,11.40
2012,07,05,01,00,11.40
2012,07,05,01,01,11.30
2012,07,05,01,02,11.30
2012,07,05,01,03,11.30
2012,07,05,01,04,11.20
2012,07,05,01,05,11.20
2012,07,05,01,06,11.20
2012,07,05,01,07,11.10
2012,07,05,01,08,11.10
2012,07,05,01,09,11.10
2012,07,05,01,10,11.10
2012,07,05,01,11,11.00
2012,07,05,01,12,11.00
2012,07,05,01,13,10.90
2012,07,05,01,14,10.90
2012,07,05,01,15,10.90
2012,07,05,01,16,10.90
2012,07,05,01,17,10.80
2012,07,05,01,18,10.80
2012,07,05,01,19,10.80
2012,07,05,01,20,10.70
2012,07,05,01,21,10.70
2012,07,05,01,22,10.70
2012,07,05,01,23,10.70
2012,07,05,01,24,10.60
2012,07,05,01,25,10.60
2012,07,05,01,26,10.50
2012,07,05,01,27,10.50
2012,07,05,01,28,10.50
2012,07,05,01,29,10.40
2012,07,05,01,30,10.40
2012,07,05,01,31,10.40
2012,07,05,01,32,10.30
2012,07,05,01,33,10.30
2012,07,05,01,34,10.30
2012,07,05,01,35,10.30
2012,07,05,01,36,10.30
2012,07,05,01,37,10.20
2012,07,05,01,38,10.20
2012,07,05,01,39,10.20
2012,07,05,01,40,10.20
2012,07,05,01,41,10.20
2012,07,05,01,42,10.10
2012,07,05,01,43,10.10
2012,07,05,01,44,10.10
2012,07,05,01,45,10.10
2012,07,05,01,46,10.00
2012,07,05,01,47,10.00
2012,07,05,01,48,10.00
2012,07,05,01,49,9.90
2012,07,05,01,50,9.90
2012,07,05,01,51,9.90
2012,07,05,01,52,9.80
2012,07,05,01,53,9.80
2012,07,05,01,54,9.80
2012,07,05,01,55,9.80
2012,07,05,01,56,9.80
2012,07,05,01,57,9.80
2012,07,05,01,58,9.70
2012,07,05,01,59,9.70
2012,07,05,02,00,9.70
2012,07,05,02,01,9.70
2012,07,05,02,02,9.60
2012,07,05,02,03,9.60
2012,07,05,02,04,9.60
2012,07,05,02,05,9.60
2012,07,05,02,06,9.50
2012,07,05,02,07,9.50
2012,07,05,02,08,9.50
2012,07,05,02,09,9.40
2012,07,05,02,10,9.40
2012,07,05,02,11,9.40
2012,07,05,02,12,9.40
2012,07,05,02,13,9.40
2012,07,05,02,14,9.30
2012,07,05,02,15,9.30
2012,07,05,02,16,9.30
2012,07,05,02,17,9.30
2012,07,05,02,18,9.30
2012,07,05,02,19,9.30
2012,07,05,02,20,9.20
2012,07,05,02,21,9.20
2012,07,05,02,22,9.20
2012,07,05,02,23,9.20
2012,07,05,02,24,9.10
2012,07,05,02,25,9.10
2012,07,05,02,26,9.10
2012,07,05,02,27,9.10
2012,07,05,02,28,9.10
2012,07,05,02,29,9.10
2012,07,05,02,30,9.00
2012,07,05,02,31,9.00
2012,07,05,02,32,9.00
2012,07,05,02,33,9.00
2012,07,05,02,34,8.90
2012,07,05,02,35,8.90
2012,07,05,02,36,8.90
2012,07,05,02,37,8.80
2012,07,05,02,38,8.80
2012,07,05,02,39,8.80
2012,07,05,02,40,8.80
2012,07,05,02,41,8.80
2012,07,05,02,42,8.80
2012,07,05,02,43,8.70
2012,07,05,02,44,8.70
2012,07,05,02,45,8.70
2012,07,05,02,46,8.70
2012,07,05,02,47,8.70
2012,07,05,02,48,8.70
2012,07,05,02,49,8.60
2012,07,05,02,50,8.60
2012,07,05,02,51,8.60
2012,07,05,02,52,8.60
2012,07,05,02,53,8.50
2012,07,05,02,54,8.50
2012,07,05,02,55,8.50
2012,07,05,02,56,8.40
2012,07,05,02,57,8.40
2012,07,05,02,58,8.40
2012,07,05,02,59,8.40
2012,07,05,03,00,8.30
2012,07,05,03,01,8.30
2012,07,05,03,02,8.30
2012,07,05,03,03,8.30
2012,07,05,03,04,8.30
2012,07,05,03,05,8.30
2012,07,05,03,06,8.20
2012,07,05,03,07,8.20
2012,07,05,03,08,8.20
2012,07,05,03,09,8.20
2012,07,05,03,10,8.20
2012,07,05,03,11,8.20
2012,07,05,03,12,8.10
2012,07,05,03,13,8.10
2012,07,05,03,14,8.10
2012,07,05,03,15,8.10
2012,07,05,03,16,8.10
2012,07,05,03,17,8.00
2012,07,05,03,18,8.00
2012,07,05,03,19,8.00
2012,07,05,03,20,8.00
2012,07,05,03,21,8.00
2012,07,05,03,22,8.00
2012,07,05,03,23,7.90
2012,07,05,03,24,7.90
2012,07,05,03,25,7.90
2012,07,05,03,26,7.90
2012,07,05,03,27,7.80
2012,07,05,03,28,7.80
2012,07,05,03,29,7.80
2012,07,05,03,30,7.80
2012,07,05,03,31,7.80
2012,07,05,03,32,7.80
2012,07,05,03,33,7.80
2012,07,05,03,34,7.80
2012,07,05,03,35,7.70
2012,07,05,03,36,7.70
2012,07,05,03,37,7.70
2012,07,05,03,38,7.70
2012,07,05,03,39,7.70
2012,07,05,03,40,7.70
2012,07,05,03,41,7.70
2012,07,05,03,42,7.70
2012,07,05,03,43,7.60
2012,07,05,03,44,7.60
2012,07,05,03,45,7.60
2012,07,05,03,46,7.60
2012,07,05,03,47,7.60
2012,07,05,03,48,7.60
2012,07,05,03,49,7.50
2012,07,05,03,50,7.50
2012,07,05,03,51,7.50
2012,07,05,03,52,7.50
2012,07,05,03,53,7.40
2012,07,05,03,54,7.40
2012,07,05,03,55,7.40
2012,07,05,03,56,7.40
2012,07,05,03,57,7.40
2012,07,05,03,58,7.30
2012,07,05,03,59,7.30
2012,07,05,04,00,7.30
2012,07,05,04,01,7.30
2012,07,05,04,02,7.30
2012,07,05,04,03,7.30
2012,07,05,04,04,7.30
2012,07,05,04,05,7.30
2012,07,05,04,06,7.30
2012,07,05,04,07,7.30
2012,07,05,04,08,7.20
2012,07,05,04,09,7.20
2012,07,05,04,10,7.20
2012,07,05,04,11,7.20
2012,07,05,04,12,7.20
2012,07,05,04,13,7.20
2012,07,05,04,14,7.20
2012,07,05,04,15,7.20
2012,07,05,04,16,7.10
2012,07,05,04,17,7.10
2012,07,05,04,18,7.10
2012,07,05,04,19,7.10
2012,07,05,04,20,7.10
2012,07,05,04,21,7.10
2012,07,05,04,22,7.00
2012,07,05,04,23,7.00
2012,07,05,04,24,7.00
2012,07,05,04,25,7.00
2012,07,05,04,26,7.00
2012,07,05,04,27,7.00
2012,07,05,04,28,6.90
2012,07,05,04,29,6.90
2012,07,05,04,30,6.90
2012,07,05,04,31,6.90
2012,07,05,04,32,6.90
2012,07,05,04,33,6.90
2012,07,05,04,34,6.90
2012,07,05,04,35,6.90
2012,07,05,04,36,6.90
2012,07,05,04,37,6.90
2012,07,05,04,38,6.90
2012,07,05,04,39,6.90
2012,07,05,04,40,6.90
2012,07,05,04,41,6.90
2012,07,05,04,42,6.90
2012,07,05,04,43,6.90
2012,07,05,04,44,6.90
2012,07,05,04,45,6.80
2012,07,05,04,46,6.80
2012,07,05,04,47,6.80
2012,07,05,04,48,6.80
2012,07,05,04,49,6.80
2012,07,05,04,50,6.80
2012,07,05,04,51,6.80
2012,07,05,04,52,6.80
2012,07,05,04,53,6.70
2012,07,05,04,54,6.70
2012,07,05,04,55,6.70
2012,07,05,04,56,6.70
2012,07,05,04,57,6.70
2012,07,05,04,58,6.70
2012,07,05,04,59,6.70
2012,07,05,05,00,6.70
2012,07,05,05,01,6.70
2012,07,05,05,02,6.60
2012,07,05,05,03,6.60
2012,07,05,05,04,6.60
2012,07,05,05,05,6.60
2012,07,05,05,06,6.60
2012,07,05,05,07,6.60
2012,07,05,05,08,6.60
2012,07,05,05,09,6.60
2012,07,05,05,10,6.60
2012,07,05,05,11,6.60
2012,07,05,05,12,6.50
2012,07,05,05,13,6.50
2012,07,05,05,14,6.50
2012,07,05,05,15,6.50
2012,07,05,05,16,6.50
2012,07,05,05,17,6.50
2012,07,05,05,18,6.40
2012,07,05,05,19,6.40
2012,07,05,05,20,6.40
2012,07,05,05,21,6.40
2012,07,05,05,22,6.40
2012,07,05,05,23,6.40
2012,07,05,05,24,6.40
2012,07,05,05,25,6.40
2012,07,05,05,26,6.40
2012,07,05,05,27,6.40
2012,07,05,05,28,6.40
2012,07,05,05,29,6.30
2012,07,05,05,30,6.30
2012,07,05,05,31,6.30
2012,07,05,05,32,6.30
2012,07,05,05,33,6.30
2012,07,05,05,34,6.30
2012,07,05,05,35,6.30
2012,07,05,05,36,6.30
2012,07,05,05,37,6.30
2012,07,05,05,38,6.30
2012,07,05,05,39,6.30
2012,07,05,05,40,6.30
2012,07,05,05,41,6.30
2012,07,05,05,42,6.30
2012,07,05,05,43,6.20
2012,07,05,05,44,6.20
2012,07,05,05,45,6.20
2012,07,05,05,46,6.20
2012,07,05,05,47,6.20
2012,07,05,05,48,6.20
2012,07,05,05,49,6.20
2012,07,05,05,50,6.20
2012,07,05,05,51,6.20
2012,07,05,05,52,6.20
2012,07,05,05,53,6.20
2012,07,05,05,54,6.20
2012,07,05,05,55,6.20
2012,07,05,05,56,6.20
2012,07,05,05,57,6.20
2012,07,05,05,58,6.20
2012,07,05,05,59,6.20
2012,07,05,06,00,6.20
2012,07,05,06,01,6.20
2012,07,05,06,02,6.20
2012,07,05,06,03,6.20
2012,07,05,06,04,6.20
2012,07,05,06,05,6.20
2012,07,05,06,06,6.20
2012,07,05,06,07,6.20
2012,07,05,06,08,6.20
2012,07,05,06,09,6.20
2012,07,05,06,10,6.20
2012,07,05,06,11,6.20
2012,07,05,06,12,6.20
2012,07,05,06,13,6.20
2012,07,05,06,14,6.20
2012,07,05,06,15,6.20
2012,07,05,06,16,6.20
2012,07,05,06,17,6.20
2012,07,05,06,18,6.20
2012,07,05,06,19,6.30
2012,07,05,06,20,6.30
2012,07,05,06,21,6.30
2012,07,05,06,22,6.30
2012,07,05,06,23,6.30
2012,07,05,06,24,6.30
2012,07,05,06,25,6.30
2012,07,05,06,26,6.30
2012,07,05,06,27,6.30
2012,07,05,06,28,6.30
2012,07,05,06,29,6.30
2012,07,05,06,30,6.30
2012,07,05,06,31,6.30
2012,07,05,06,32,6.30
2012,07,05,06,33,6.30
2012,07,05,06,34,6.30
2012,07,05,06,35,6.30
2012,07,05,06,36,6.30
2012,07,05,06,37,6.30
2012,07,05,06,38,6.30
2012,07,05,06,39,6.30
2012,07,05,06,40,6.30
2012,07,05,06,41,6.30
2012,07,05,06,42,6.30
2012,07,05,06,43,6.30
2012,07,05,06,44,6.30
2012,07,05,06,45,6.30
2012,07,05,06,46,6.30
2012,07,05,06,47,6.40
2012,07,05,06,48,6.40
2012,07,05,06,49,6.40
2012,07,05,06,50,6.40
2012,07,05,06,51,6.40
2012,07,05,06,52,6.40
2012,07,05,06,53,6.40
2012,07,05,06,54,6.40
2012,07,05,06,55,6.40
2012,07,05,06,56,6.40
2012,07,05,06,57,6.40
2012,07,05,06,58,6.40
2012,07,05,06,59,6.50
2012,07,05,07,00,6.50
2012,07,05,07,01,6.50
2012,07,05,07,02,6.60
2012,07,05,07,03,6.60
2012,07,05,07,04,6.60
2012,07,05,07,05,6.60
2012,07,05,07,06,6.60
2012,07,05,07,07,6.60
2012,07,05,07,08,6.60
2012,07,05,07,09,6.60
2012,07,05,07,10,6.70
2012,07,05,07,11,6.70
2012,07,05,07,12,6.70
2012,07,05,07,13,6.70
2012,07,05,07,14,6.70
2012,07,05,07,15,6.80
2012,07,05,07,16,6.80
2012,07,05,07,17,6.80
2012,07,05,07,18,6.80
2012,07,05,07,19,6.80
2012,07,05,07,20,6.80
2012,07,05,07,21,6.90
2012,07,05,07,22,6.90
2012,07,05,07,23,6.90
2012,07,05,07,24,6.90
2012,07,05,07,25,7.00
2012,07,05,07,26,7.00
2012,07,05,07,27,7.00
2012,07,05,07,28,7.10
2012,07,05,07,29,7.10
2012,07,05,07,30,7.20
2012,07,05,07,31,7.20
2012,07,05,07,32,7.20
2012,07,05,07,33,7.30
2012,07,05,07,34,7.30
2012,07,05,07,35,7.30
2012,07,05,07,36,7.30
2012,07,05,07,37,7.30
2012,07,05,07,38,7.30
2012,07,05,07,39,7.30
2012,07,05,07,40,7.40
2012,07,05,07,41,7.40
2012,07,05,07,42,7.40
2012,07,05,07,43,7.40
2012,07,05,07,44,7.50
2012,07,05,07,45,7.50
2012,07,05,07,46,7.50
2012,07,05,07,47,7.60
2012,07,05,07,48,7.60
2012,07,05,07,49,7.60
2012,07,05,07,50,7.70
2012,07,05,07,51,7.80
2012,07,05,07,52,7.80
2012,07,05,07,53,7.90
2012,07,05,07,54,8.00
2012,07,05,07,55,8.00
2012,07,05,07,56,8.10
2012,07,05,07,57,8.20
2012,07,05,07,58,8.20
2012,07,05,07,59,8.30
2012,07,05,08,00,8.40
2012,07,05,08,01,8.50
2012,07,05,08,02,8.60
2012,07,05,08,03,8.70
2012,07,05,08,04,8.80
2012,07,05,08,05,8.80
2012,07,05,08,06,8.90
2012,07,05,08,07,8.90
2012,07,05,08,08,9.00
2012,07,05,08,09,9.00
2012,07,05,08,10,9.10
2012,07,05,08,11,9.10
2012,07,05,08,12,9.10
2012,07,05,08,13,9.20
2012,07,05,08,14,9.20
2012,07,05,08,15,9.30
2012,07,05,08,16,9.30
2012,07,05,08,17,9.30
2012,07,05,08,18,9.30
2012,07,05,08,19,9.20
2012,07,05,08,20,9.20
2012,07,05,08,21,9.10
2012,07,05,08,22,9.10
2012,07,05,08,23,9.10
2012,07,05,08,24,9.20
2012,07,05,08,25,9.20
2012,07,05,08,26,9.20
2012,07,05,08,27,9.30
2012,07,05,08,28,9.30
2012,07,05,08,29,9.30
2012,07,05,08,30,9.40
2012,07,05,08,31,9.40
2012,07,05,08,32,9.50
2012,07,05,08,33,9.50
2012,07,05,08,34,9.60
2012,07,05,08,35,9.70
2012,07,05,08,36,9.70
2012,07,05,08,37,9.80
2012,07,05,08,38,9.90
2012,07,05,08,39,10.00
2012,07,05,08,40,10.10
2012,07,05,08,41,10.10
2012,07,05,08,42,10.20
2012,07,05,08,43,10.30
2012,07,05,08,44,10.40
2012,07,05,08,45,10.50
2012,07,05,08,46,10.50
2012,07,05,08,47,10.60
2012,07,05,08,48,10.70
2012,07,05,08,49,10.80
2012,07,05,08,50,10.90
2012,07,05,08,51,10.90
2012,07,05,08,52,11.00
2012,07,05,08,53,11.00
2012,07,05,08,54,11.10
2012,07,05,08,55,11.10
2012,07,05,08,56,11.10
2012,07,05,08,57,11.10
2012,07,05,08,58,11.20
2012,07,05,08,59,11.20
2012,07,05,09,00,11.20
2012,07,05,09,01,11.20
2012,07,05,09,02,11.20
2012,07,05,09,03,11.30
2012,07,05,09,04,11.30
2012,07,05,09,05,11.30
2012,07,05,09,06,11.40
2012,07,05,09,07,11.40
2012,07,05,09,08,11.40
2012,07,05,09,09,11.50
2012,07,05,09,10,11.50
2012,07,05,09,11,11.50
2012,07,05,09,12,11.60
2012,07,05,09,13,11.70
2012,07,05,09,14,11.70
2012,07,05,09,15,11.70
2012,07,05,09,16,11.80
2012,07,05,09,17,11.80
2012,07,05,09,18,11.90
2012,07,05,09,19,11.90
2012,07,05,09,20,12.00
2012,07,05,09,21,12.10
2012,07,05,09,22,12.20
2012,07,05,09,23,12.30
2012,07,05,09,24,12.30
2012,07,05,09,25,12.30
2012,07,05,09,26,12.40
2012,07,05,09,27,12.40
2012,07,05,09,28,12.40
2012,07,05,09,29,12.40
2012,07,05,09,30,12.40
2012,07,05,09,31,12.40
2012,07,05,09,32,12.50
2012,07,05,09,33,12.50
2012,07,05,09,34,12.60
2012,07,05,09,35,12.60
2012,07,05,09,36,12.60
2012,07,05,09,37,12.60
2012,07,05,09,38,12.60
2012,07,05,09,39,12.60
2012,07,05,09,40,12.60
2012,07,05,09,41,12.60
2012,07,05,09,42,12.70
2012,07,05,09,43,12.70
2012,07,05,09,44,12.70
2012,07,05,09,45,12.80
2012,07,05,09,46,12.80
2012,07,05,09,47,12.80
2012,07,05,09,48,12.80
2012,07,05,09,49,12.80
2012,07,05,09,50,12.90
2012,07,05,09,51,12.90
2012,07,05,09,52,12.90
2012,07,05,09,53,13.00
2012,07,05,09,54,13.00
2012,07,05,09,55,13.00
2012,07,05,09,56,13.10
2012,07,05,09,57,13.10
2012,07,05,09,58,13.10
2012,07,05,09,59,13.20
2012,07,05,10,00,13.30
2012,07,05,10,01,13.30
2012,07,05,10,02,13.30
2012,07,05,10,03,13.40
2012,07,05,10,04,13.40
2012,07,05,10,05,13.40
2012,07,05,10,06,13.50
2012,07,05,10,07,13.60
2012,07,05,10,08,13.60
2012,07,05,10,09,13.70
2012,07,05,10,10,13.70
2012,07,05,10,11,13.80
2012,07,05,10,12,13.80
2012,07,05,10,13,13.90
2012,07,05,10,14,13.90
2012,07,05,10,15,13.90
2012,07,05,10,16,13.90
2012,07,05,10,17,14.00
2012,07,05,10,18,14.00
2012,07,05,10,19,14.00
2012,07,05,10,20,14.10
2012,07,05,10,21,14.10
2012,07,05,10,22,14.20
2012,07,05,10,23,14.30
2012,07,05,10,24,14.40
2012,07,05,10,25,14.50
2012,07,05,10,26,14.60
2012,07,05,10,27,14.60
2012,07,05,10,28,14.70
2012,07,05,10,29,14.80
2012,07,05,10,30,14.90
2012,07,05,10,31,15.00
2012,07,05,10,32,15.10
2012,07,05,10,33,15.20
2012,07,05,10,34,15.20
2012,07,05,10,35,15.30
2012,07,05,10,36,15.30
2012,07,05,10,37,15.40
2012,07,05,10,38,15.40
2012,07,05,10,39,15.50
2012,07,05,10,40,15.50
2012,07,05,10,41,15.60
2012,07,05,10,42,15.60
2012,07,05,10,43,15.70
2012,07,05,10,44,15.70
2012,07,05,10,45,15.80
2012,07,05,10,46,15.90
2012,07,05,10,47,15.90
2012,07,05,10,48,16.00
2012,07,05,10,49,16.00
2012,07,05,10,50,16.10
2012,07,05,10,51,16.00
2012,07,05,10,52,16.00
2012,07,05,10,53,16.00
2012,07,05,10,54,16.00
2012,07,05,10,55,16.10
2012,07,05,10,56,16.10
2012,07,05,10,57,16.20
2012,07,05,10,58,16.20
2012,07,05,10,59,16.20
2012,07,05,11,00,16.20
2012,07,05,11,01,16.20
2012,07,05,11,02,16.10
2012,07,05,11,03,16.20
2012,07,05,11,04,16.20
2012,07,05,11,05,16.20
2012,07,05,11,06,16.20
2012,07,05,11,07,16.30
2012,07,05,11,08,16.30
2012,07,05,11,09,16.30
2012,07,05,11,10,16.30
2012,07,05,11,11,16.40
2012,07,05,11,12,16.40
2012,07,05,11,13,16.40
2012,07,05,11,14,16.50
2012,07,05,11,15,16.50
2012,07,05,11,16,16.60
2012,07,05,11,17,16.70
2012,07,05,11,18,16.80
2012,07,05,11,19,16.90
2012,07,05,11,20,17.00
2012,07,05,11,21,17.00
2012,07,05,11,22,17.10
2012,07,05,11,23,17.10
2012,07,05,11,24,17.10
2012,07,05,11,25,17.10
2012,07,05,11,26,17.00
2012,07,05,11,27,17.10
2012,07,05,11,28,17.10
2012,07,05,11,29,17.10
2012,07,05,11,30,17.00
2012,07,05,11,31,17.00
2012,07,05,11,32,17.00
2012,07,05,11,33,17.00
2012,07,05,11,34,17.00
2012,07,05,11,35,17.00
2012,07,05,11,36,17.10
2012,07,05,11,37,17.10
2012,07,05,11,38,17.10
2012,07,05,11,39,17.10
2012,07,05,11,40,17.10
2012,07,05,11,41,17.20
2012,07,05,11,42,17.30
2012,07,05,11,43,17.30
2012,07,05,11,44,17.30
2012,07,05,11,45,17.30
2012,07,05,11,46,17.30
2012,07,05,11,47,17.40
2012,07,05,11,48,17.50
2012,07,05,11,49,17.50
2012,07,05,11,50,17.50
2012,07,05,11,51,17.50
2012,07,05,11,52,17.50
2012,07,05,11,53,17.60
2012,07,05,11,54,17.70
2012,07,05,11,55,17.80
2012,07,05,11,56,17.80
2012,07,05,11,57,17.90
2012,07,05,11,58,18.00
2012,07,05,11,59,18.00
2012,07,05,12,00,18.10
2012,07,05,12,01,18.10
2012,07,05,12,02,18.20
2012,07,05,12,03,18.20
2012,07,05,12,04,18.30
2012,07,05,12,05,18.30
2012,07,05,12,06,18.30
2012,07,05,12,07,18.40
2012,07,05,12,08,18.50
2012,07,05,12,09,18.50
2012,07,05,12,10,18.60
2012,07,05,12,11,18.70
2012,07,05,12,12,18.70
2012,07,05,12,13,18.80
2012,07,05,12,14,18.80
2012,07,05,12,15,18.90
2012,07,05,12,16,19.00
2012,07,05,12,17,19.10
2012,07,05,12,18,19.20
2012,07,05,12,19,19.30
2012,07,05,12,20,19.40
2012,07,05,12,21,19.40
2012,07,05,12,22,19.40
2012,07,05,12,23,19.30
2012,07,05,12,24,19.30
2012,07,05,12,25,19.20
2012,07,05,12,26,19.10
2012,07,05,12,27,19.00
2012,07,05,12,28,18.90
2012,07,05,12,29,18.90
2012,07,05,12,30,18.70
2012,07,05,12,31,18.60
2012,07,05,12,32,18.50
2012,07,05,12,33,18.30
2012,07,05,12,34,18.20
2012,07,05,12,35,18.00
2012,07,05,12,36,17.90
2012,07,05,12,37,17.80
2012,07,05,12,38,17.70
2012,07,05,12,39,17.70
2012,07,05,12,40,17.60
2012,07,05,12,41,17.60
2012,07,05,12,42,17.60
2012,07,05,12,43,17.60
2012,07,05,12,44,17.50
2012,07,05,12,45,17.40
2012,07,05,12,46,17.40
2012,07,05,12,47,17.30
2012,07,05,12,48,17.30
2012,07,05,12,49,17.30
2012,07,05,12,50,17.30
2012,07,05,12,51,17.20
2012,07,05,12,52,17.20
2012,07,05,12,53,17.20
2012,07,05,12,54,17.20
2012,07,05,12,55,17.20
2012,07,05,12,56,17.20
2012,07,05,12,57,17.10
2012,07,05,12,58,17.10
2012,07,05,12,59,17.10
2012,07,05,13,00,17.10
2012,07,05,13,01,17.10
2012,07,05,13,02,17.10
2012,07,05,13,03,17.00
2012,07,05,13,04,17.00
2012,07,05,13,05,17.00
2012,07,05,13,06,17.00
2012,07,05,13,07,17.00
2012,07,05,13,08,17.00
2012,07,05,13,09,16.90
2012,07,05,13,10,16.90
2012,07,05,13,11,16.90
2012,07,05,13,12,16.90
2012,07,05,13,13,16.90
2012,07,05,13,14,16.90
2012,07,05,13,15,16.80
2012,07,05,13,16,16.80
2012,07,05,13,17,16.70
2012,07,05,13,18,16.70
2012,07,05,13,19,16.60
2012,07,05,13,20,16.60
2012,07,05,13,21,16.50
2012,07,05,13,22,16.50
2012,07,05,13,23,16.40
2012,07,05,13,24,16.30
2012,07,05,13,25,16.30
2012,07,05,13,26,16.30
2012,07,05,13,27,16.20
2012,07,05,13,28,16.20
2012,07,05,13,29,16.20
2012,07,05,13,30,16.20
2012,07,05,13,31,16.20
2012,07,05,13,32,16.20
2012,07,05,13,33,16.20
2012,07,05,13,34,16.20
2012,07,05,13,35,16.20
2012,07,05,13,36,16.20
2012,07,05,13,37,16.20
2012,07,05,13,38,16.20
2012,07,05,13,39,16.20
2012,07,05,13,40,16.30
2012,07,05,13,41,16.30
2012,07,05,13,42,16.30
2012,07,05,13,43,16.40
2012,07,05,13,44,16.40
2012,07,05,13,45,16.50
2012,07,05,13,46,16.60
2012,07,05,13,47,16.70
2012,07,05,13,48,16.80
2012,07,05,13,49,16.90
2012,07,05,13,50,16.90
2012,07,05,13,51,17.00
2012,07,05,13,52,17.10
2012,07,05,13,53,17.20
2012,07,05,13,54,17.20
2012,07,05,13,55,17.30
2012,07,05,13,56,17.30
2012,07,05,13,57,17.40
2012,07,05,13,58,17.40
2012,07,05,13,59,17.50
2012,07,05,14,00,17.50
2012,07,05,14,01,17.60
2012,07,05,14,02,17.60
2012,07,05,14,03,17.70
2012,07,05,14,04,17.70
2012,07,05,14,05,17.70
2012,07,05,14,06,17.80
2012,07,05,14,07,17.80
2012,07,05,14,08,17.90
2012,07,05,14,09,17.90
2012,07,05,14,10,17.90
2012,07,05,14,11,17.90
2012,07,05,14,12,17.90
2012,07,05,14,13,17.90
2012,07,05,14,14,17.90
2012,07,05,14,15,18.00
2012,07,05,14,16,18.00
2012,07,05,14,17,18.00
2012,07,05,14,18,18.00
2012,07,05,14,19,18.10
2012,07,05,14,20,18.10
2012,07,05,14,21,18.10
2012,07,05,14,22,18.10
2012,07,05,14,23,18.10
2012,07,05,14,24,18.10
2012,07,05,14,25,18.10
2012,07,05,14,26,18.10
2012,07,05,14,27,18.10
2012,07,05,14,28,18.10
2012,07,05,14,29,18.10
2012,07,05,14,30,18.10
2012,07,05,14,31,18.20
2012,07,05,14,32,18.20
2012,07,05,14,33,18.20
2012,07,05,14,34,18.30
2012,07,05,14,35,18.30
2012,07,05,14,36,18.30
2012,07,05,14,37,18.40
2012,07,05,14,38,18.50
2012,07,05,14,39,18.50
2012,07,05,14,40,18.60
2012,07,05,14,41,18.70
2012,07,05,14,42,18.80
2012,07,05,14,43,18.90
2012,07,05,14,44,19.00
2012,07,05,14,45,19.10
2012,07,05,14,46,19.10
2012,07,05,14,47,19.10
2012,07,05,14,48,19.10
2012,07,05,14,49,19.10
2012,07,05,14,50,19.10
2012,07,05,14,51,19.10
2012,07,05,14,52,19.10
2012,07,05,14,53,19.10
2012,07,05,14,54,19.20
2012,07,05,14,55,19.20
2012,07,05,14,56,19.20
2012,07,05,14,57,19.20
2012,07,05,14,58,19.20
2012,07,05,14,59,19.20
2012,07,05,15,00,19.20
2012,07,05,15,01,19.30
2012,07,05,15,02,19.30
2012,07,05,15,03,19.30
2012,07,05,15,04,19.40
2012,07,05,15,05,19.40
2012,07,05,15,06,19.40
2012,07,05,15,07,19.50
2012,07,05,15,08,19.50
2012,07,05,15,09,19.60
2012,07,05,15,10,19.60
2012,07,05,15,11,19.60
2012,07,05,15,12,19.60
2012,07,05,15,13,19.70
2012,07,05,15,14,19.70
2012,07,05,15,15,19.70
2012,07,05,15,16,19.70
2012,07,05,15,17,19.80
2012,07,05,15,18,19.80
2012,07,05,15,19,19.80
2012,07,05,15,20,19.90
2012,07,05,15,21,19.90
2012,07,05,15,22,19.90
2012,07,05,15,23,19.90
2012,07,05,15,24,19.90
2012,07,05,15,25,20.00
2012,07,05,15,26,20.00
2012,07,05,15,27,20.00
2012,07,05,15,28,20.00
2012,07,05,15,29,20.00
2012,07,05,15,30,20.00
2012,07,05,15,31,19.90
2012,07,05,15,32,19.90
2012,07,05,15,33,19.90
2012,07,05,15,34,19.90
2012,07,05,15,35,19.90
2012,07,05,15,36,19.90
2012,07,05,15,37,19.90
2012,07,05,15,38,19.80
2012,07,05,15,39,19.80
2012,07,05,15,40,19.80
2012,07,05,15,41,19.80
2012,07,05,15,42,19.70
2012,07,05,15,43,19.60
2012,07,05,15,44,19.50
2012,07,05,15,45,19.30
2012,07,05,15,46,19.20
2012,07,05,15,47,19.10
2012,07,05,15,48,19.00
2012,07,05,15,49,18.90
2012,07,05,15,50,18.80
2012,07,05,15,51,18.80
2012,07,05,15,52,18.80
2012,07,05,15,53,18.80
2012,07,05,15,54,18.80
2012,07,05,15,55,18.90
2012,07,05,15,56,18.90
2012,07,05,15,57,18.90
2012,07,05,15,58,18.80
2012,07,05,15,59,18.80
2012,07,05,16,00,18.70
2012,07,05,16,01,18.70
2012,07,05,16,02,18.60
2012,07,05,16,03,18.50
2012,07,05,16,04,18.40
2012,07,05,16,05,18.40
2012,07,05,16,06,18.30
2012,07,05,16,07,18.30
2012,07,05,16,08,18.20
2012,07,05,16,09,18.20
2012,07,05,16,10,18.10
2012,07,05,16,11,18.10
2012,07,05,16,12,18.20
2012,07,05,16,13,18.20
2012,07,05,16,14,18.30
2012,07,05,16,15,18.30
2012,07,05,16,16,18.40
2012,07,05,16,17,18.50
2012,07,05,16,18,18.60
2012,07,05,16,19,18.70
2012,07,05,16,20,18.70
2012,07,05,16,21,18.80
2012,07,05,16,22,18.80
2012,07,05,16,23,18.80
2012,07,05,16,24,18.90
2012,07,05,16,25,18.90
2012,07,05,16,26,19.00
2012,07,05,16,27,19.00
2012,07,05,16,28,19.00
2012,07,05,16,29,19.00
2012,07,05,16,30,19.00
2012,07,05,16,31,19.00
2012,07,05,16,32,19.00
2012,07,05,16,33,19.00
2012,07,05,16,34,19.00
2012,07,05,16,35,19.00
2012,07,05,16,36,19.00
2012,07,05,16,37,19.00
2012,07,05,16,38,19.00
2012,07,05,16,39,19.00
2012,07,05,16,40,19.00
2012,07,05,16,41,19.00
2012,07,05,16,42,18.90
2012,07,05,16,43,18.90
2012,07,05,16,44,18.90
2012,07,05,16,45,19.00
2012,07,05,16,46,19.00
2012,07,05,16,47,19.10
2012,07,05,16,48,19.10
2012,07,05,16,49,19.20
2012,07,05,16,50,19.20
2012,07,05,16,51,19.20
2012,07,05,16,52,19.30
2012,07,05,16,53,19.30
2012,07,05,16,54,19.40
2012,07,05,16,55,19.50
2012,07,05,16,56,19.60
2012,07,05,16,57,19.60
2012,07,05,16,58,19.70
2012,07,05,16,59,19.80
2012,07,05,17,00,19.80
2012,07,05,17,01,19.90
2012,07,05,17,02,19.90
2012,07,05,17,03,19.80
2012,07,05,17,04,19.80
2012,07,05,17,05,19.80
2012,07,05,17,06,19.80
2012,07,05,17,07,19.80
2012,07,05,17,08,19.70
2012,07,05,17,09,19.70
2012,07,05,17,10,19.60
2012,07,05,17,11,19.50
2012,07,05,17,12,19.40
2012,07,05,17,13,19.40
2012,07,05,17,14,19.30
2012,07,05,17,15,19.30
2012,07,05,17,16,19.20
2012,07,05,17,17,19.20
2012,07,05,17,18,19.10
2012,07,05,17,19,19.10
2012,07,05,17,20,19.00
2012,07,05,17,21,19.00
2012,07,05,17,22,18.90
2012,07,05,17,23,18.90
2012,07,05,17,24,18.90
2012,07,05,17,25,18.80
2012,07,05,17,26,18.80
2012,07,05,17,27,18.80
2012,07,05,17,28,18.70
2012,07,05,17,29,18.70
2012,07,05,17,30,18.70
2012,07,05,17,31,18.70
2012,07,05,17,32,18.60
2012,07,05,17,33,18.60
2012,07,05,17,34,18.50
2012,07,05,17,35,18.50
2012,07,05,17,36,18.40
2012,07,05,17,37,18.40